Flag for Switzerland Weather past 2 weeks in Pully, Vaud, Switzerland

Now
64 °F

Scattered clouds.


Feels Like: 64 °F
Forecast: 52 / 62 °F
Wind: 5 mph from North

Location: Aigle

Current Time: May 25, 2015 at 11:50:36 AM

Latest Report: May 25, 2015 at 11:00 AM


Visibility: 18 mi

Pressure: 29.98 "Hg

Humidity: 65%

Dew point: 52 °F

Location of PullyLocation

Historic Weather in Pully — Graph

°F

Pully temperature yesterday

Maximum temperature yesterday: 66 °F (at 4:00 PM)
Minimum temperature yesterday: 42 °F (at 6:00 AM)
Average temperature yesterday: 56 °F

Past Weeks' High & Low Weather Summary

 TemperatureHumidityPressure
High80 °F (May 13, 6:00 PM)95% (May 18, 7:00 AM)30.33 "Hg (May 18, 7:00 AM)
Low42 °F (May 24, 6:00 AM)35% (May 23, 8:00 PM)29.73 "Hg (May 18, 7:00 PM)
Average58 °F68%30.07 "Hg
* Reported May 10 10:00 AM — May 25 10:00 AM, Pully, Weather by CustomWeather, © 2015

Note: Actual official high and low records may vary slightly from our data, if they occured in-between our weather recording intervals... More about our weather records

Advertising

Pully weather history for previous 24 hours

 ConditionsComfort  
Time TempWeatherWind HumidityBarometerVisibility
10:00 AM
Mon, May 25
61 °FCool.3 mph69%30.00 "HgN/A
9:00 AM59 °FCool.1 mph77%30.01 "HgN/A
8:00 AM55 °FOvercast.1 mph90%30.02 "Hg16 mi
7:00 AM54 °FCool.2 mph89%30.02 "HgN/A
6:40 AM53 °FCool.2 mph91%30.03 "HgN/A
6:00 AM54 °FCool.1 mph88%30.02 "HgN/A
4:00 AM55 °FCool.1 mph84%30.02 "HgN/A
3:00 AM54 °FCool.No wind90%30.02 "HgN/A
2:00 AM56 °FCool.No wind84%30.02 "HgN/A
1:00 AM56 °FCool.1 mph78%30.02 "HgN/A
12:00 AM56 °FCool.No wind81%30.02 "HgN/A
10:00 PM
Sun, May 24
61 °FCool.2 mph63%30.00 "HgN/A
9:00 PM60 °FCool.1 mph74%30.00 "HgN/A
8:00 PM63 °FMild.2 mph60%29.98 "HgN/A
7:00 PM65 °FMild.5 mph51%29.96 "HgN/A
6:00 PM65 °FMild.6 mph52%29.96 "HgN/A
5:00 PM65 °FMild.8 mph54%29.96 "HgN/A
4:00 PM66 °FMild.10 mph54%29.96 "HgN/A
3:00 PM65 °FMild.12 mph53%29.97 "HgN/A
2:00 PM64 °FPartly sunny.13 mph53%29.97 "Hg11 mi
1:00 PM64 °FMild.10 mph59%29.97 "HgN/A
12:00 PM62 °FMild.5 mph61%29.98 "HgN/A
11:00 AM62 °FPassing clouds.2 mph46%29.98 "Hg12 mi
Weather by CustomWeather, © 2015

See weather overviewHow to use our weather pages